GFSMA_prec_precacc_189.txt.gz
Total_Precipitation_Accumulation
0.70 1.08 0.84 0.83 0.62 1.22 0.79 0.54 0.57 0.53 0.61 0.68 0.60 0.50 0.28 0.37 0.22 0.27 0.37 0.55 0.61 0.72 1.06 1.03 0.98 0.97 0.70 0.48 0.45 0.48 0.57 0.63 0.68 0.76 0.93 0.93 0.66 0.56 0.50 0.56 0.44 0.37 0.39
0.72 1.15 1.02 0.87 0.61 0.87 0.79 0.68 0.45 0.52 0.50 0.70 0.56 0.49 0.36 0.37 0.18 0.18 0.29 0.45 0.51 0.56 0.86 1.25 1.39 1.21 0.69 0.36 0.21 0.23 0.29 0.31 0.47 0.72 0.95 0.96 0.80 0.60 0.52 0.42 0.40 0.37 0.33
0.48 0.74 0.94 0.73 0.64 0.72 0.67 0.83 0.77 0.60 0.59 0.86 0.60 0.51 0.40 0.45 0.25 0.12 0.20 0.29 0.31 0.40 0.56 0.80 1.06 1.07 0.79 0.40 0.21 0.12 0.15 0.13 0.18 0.35 0.48 0.66 0.83 0.77 0.71 0.61 0.56 0.53 0.45
0.38 0.47 0.71 0.92 0.80 0.82 0.59 0.56 0.77 0.61 0.56 0.77 0.78 0.54 0.52 0.45 0.42 0.13 0.13 0.30 0.32 0.32 0.45 0.53 0.75 0.89 0.88 0.62 0.36 0.20 0.14 0.16 0.14 0.22 0.31 0.48 0.74 0.73 0.80 0.76 0.77 0.79 0.75
0.61 0.52 0.53 0.68 1.04 0.77 0.60 0.64 0.65 0.67 0.48 0.61 0.80 0.69 0.60 0.47 0.54 0.46 0.20 0.21 0.35 0.34 0.32 0.39 0.44 0.50 0.61 0.71 0.64 0.44 0.29 0.24 0.20 0.21 0.27 0.29 0.42 0.84 1.06 1.04 0.93 1.02 1.19
0.97 0.93 0.82 0.61 0.70 0.83 0.69 0.83 0.89 0.81 0.67 0.53 0.69 0.78 0.57 0.66 0.59 0.63 0.40 0.26 0.32 0.38 0.35 0.41 0.39 0.39 0.51 0.67 0.74 0.64 0.44 0.33 0.31 0.28 0.30 0.24 0.28 0.41 0.55 0.85 1.18 1.33 1.40
1.19 1.54 1.49 1.32 0.85 0.53 0.65 0.75 1.13 1.16 1.08 0.93 1.25 1.23 0.90 0.62 0.66 0.60 0.52 0.44 0.51 0.44 0.56 0.49 0.59 0.51 0.58 0.63 0.65 0.57 0.48 0.39 0.35 0.38 0.33 0.24 0.28 0.30 0.44 0.67 1.02 1.33 1.68
1.26 1.36 1.48 1.72 1.87 1.23 0.76 0.73 1.08 1.52 1.63 1.55 1.64 1.42 1.09 0.86 0.61 0.66 0.54 0.42 0.38 0.41 0.56 0.73 0.56 0.58 0.70 0.73 0.58 0.57 0.60 0.63 0.49 0.47 0.64 0.56 0.40 0.30 0.30 0.43 0.58 1.00 1.34
0.84 1.22 1.44 1.38 1.39 1.29 1.16 1.12 1.32 1.76 1.65 1.61 1.42 1.73 1.47 1.10 0.81 0.67 0.58 0.44 0.57 0.70 0.66 0.78 0.91 0.71 0.61 0.61 0.59 0.54 0.49 0.60 0.82 0.85 0.90 0.75 0.61 0.45 0.46 0.50 0.54 0.65 0.87
0.58 0.88 1.20 1.09 1.33 1.57 1.09 0.90 0.69 1.09 1.60 1.75 2.01 1.57 0.94 0.81 0.77 0.77 0.66 0.57 0.50 0.65 0.97 1.53 1.73 1.93 1.92 1.87 1.70 1.44 1.36 1.33 1.33 1.57 1.74 1.65 1.46 1.48 1.57 1.46 1.05 0.72 0.68
0.62 0.69 0.94 1.07 1.11 1.11 1.13 1.00 0.66 0.58 0.86 1.12 1.14 1.33 1.63 1.35 0.99 0.71 0.62 0.50 0.42 0.33 0.43 0.49 0.90 1.34 1.38 1.25 1.27 1.33 1.23 1.50 1.46 1.47 1.58 1.48 1.33 1.33 1.46 1.91 1.97 1.49 1.11
0.84 0.88 0.94 1.05 1.57 1.77 1.56 1.34 1.55 1.33 1.02 1.07 1.28 1.27 0.98 0.91 0.99 1.10 0.90 0.62 0.58 0.42 0.42 0.48 0.54 0.65 0.75 0.71 0.80 0.96 0.78 0.67 0.84 0.90 0.87 0.88 0.78 0.76 0.81 0.82 1.08 1.33 1.18
1.95 2.04 2.01 1.72 1.62 1.87 2.55 2.03 1.97 1.99 2.05 1.67 1.51 1.31 1.27 1.03 0.86 0.89 0.95 0.92 0.96 0.80 0.78 0.68 0.59 0.55 0.66 0.96 0.93 0.89 0.84 0.87 0.77 0.81 0.72 0.61 0.55 0.52 0.50 0.59 0.62 0.65 0.62
2.66 3.02 3.48 3.70 2.99 2.39 2.63 2.75 2.31 2.25 2.72 2.73 2.27 1.86 1.49 1.51 1.55 1.45 1.37 1.63 1.45 1.08 0.91 0.71 0.58 0.65 0.74 0.84 0.98 1.29 1.18 1.09 1.05 0.96 0.85 0.75 0.73 0.69 0.65 0.63 0.67 0.72 0.73
1.65 2.10 2.32 2.52 3.15 3.23 2.80 2.76 2.59 2.18 2.25 2.56 2.56 2.59 2.49 1.78 1.54 1.61 1.72 1.82 2.07 1.50 0.76 0.53 0.83 0.86 0.94 0.95 1.05 1.01 0.95 1.07 1.14 1.11 1.01 0.86 0.77 0.83 0.95 0.94 0.88 0.85 0.83
2.05 1.60 1.76 1.83 1.66 1.61 1.77 2.16 2.37 2.19 2.15 2.17 2.19 2.29 2.47 2.55 2.25 2.09 2.08 2.03 2.02 1.70 1.36 0.88 0.95 0.78 0.90 0.81 1.01 0.97 0.81 0.88 1.04 1.22 1.24 1.33 1.35 1.14 0.99 1.13 1.30 1.18 0.98
2.02 1.90 1.60 1.60 1.61 1.42 1.49 1.59 1.58 1.68 1.95 2.08 1.95 2.08 2.39 2.79 2.69 2.67 2.58 2.40 2.09 2.12 2.57 1.98 1.32 1.20 1.07 0.87 0.82 0.80 0.77 0.64 0.58 0.78 1.02 1.24 1.50 2.01 1.85 1.49 1.45 1.71 1.62
1.67 1.32 1.18 1.12 1.19 1.31 1.46 1.47 1.46 1.52 1.41 1.41 1.60 1.57 1.68 1.86 2.06 2.21 2.44 2.73 2.75 2.73 2.81 2.71 2.64 2.39 1.97 1.55 1.30 1.06 0.77 0.68 0.57 0.69 0.75 0.84 1.01 1.30 1.71 1.90 1.70 1.67 1.83
1.44 1.41 1.16 1.07 1.06 1.19 1.31 1.64 1.52 1.34 1.44 1.70 1.75 1.79 1.75 1.70 1.73 1.86 1.95 1.93 1.83 1.92 2.32 2.62 2.64 2.50 2.26 1.86 1.55 1.30 1.22 1.00 0.71 0.71 0.68 0.79 0.88 0.88 1.03 1.38 1.77 1.82 1.73
1.45 1.78 1.89 1.94 1.72 1.39 1.40 1.36 1.31 1.33 1.23 1.56 1.68 1.41 1.61 1.69 1.51 1.41 1.58 1.69 1.63 1.79 2.00 2.30 2.47 2.33 2.18 2.08 2.09 1.95 1.73 1.43 1.43 1.21 1.03 0.85 0.84 0.93 0.96 1.00 1.07 1.31 1.62
0.77 1.33 1.40 1.56 1.43 1.17 1.16 0.84 0.64 1.01 1.13 1.05 1.32 1.14 1.01 1.12 1.18 0.88 0.82 1.00 1.30 1.60 1.87 2.02 2.26 2.27 2.12 2.03 2.17 2.18 2.15 2.03 2.08 1.67 1.43 1.36 1.29 1.16 1.16 1.21 1.23 1.25 1.27
0.41 0.61 0.73 0.86 1.01 0.80 0.87 0.52 0.45 0.55 0.62 0.56 0.58 0.55 0.60 0.76 0.63 0.77 0.83 0.81 0.79 0.93 1.13 1.34 1.48 1.59 1.54 1.61 1.77 2.02 2.09 2.39 2.33 1.62 1.84 1.86 1.63 1.67 1.73 1.76 2.05 1.72 1.39
0.68 0.59 0.60 0.63 0.82 0.97 1.09 0.95 0.79 0.59 0.63 0.73 0.75 0.71 0.60 0.59 0.66 0.41 0.61 0.75 0.85 1.03 1.07 1.03 1.17 1.18 1.19 1.16 1.33 1.57 1.69 1.78 1.76 1.48 1.79 2.03 1.82 1.85 1.81 1.96 2.41 2.14 2.02
0.82 0.73 0.70 0.62 0.48 0.53 0.69 0.71 0.92 0.95 1.07 0.99 0.95 0.88 0.94 0.95 0.99 0.92 0.74 0.78 0.80 0.90 1.04 1.14 1.29 1.30 1.26 1.19 1.27 1.37 1.50 1.72 1.70 1.41 1.39 1.69 1.37 1.58 1.62 1.56 1.97 1.44 1.29
0.98 0.97 0.95 0.99 0.83 0.68 0.85 0.65 0.62 0.45 0.57 0.64 0.61 0.66 0.73 0.67 1.20 1.18 0.92 0.96 1.16 1.45 1.85 1.91 2.01 2.07 1.92 1.61 1.39 1.45 1.74 2.09 2.14 1.81 1.59 1.52 1.33 1.29 1.27 1.16 1.18 1.36 0.96
1.36 1.30 1.26 1.19 1.32 0.97 1.35 1.18 1.08 0.91 0.96 0.91 0.77 0.75 1.24 0.94 1.27 0.98 0.85 0.80 1.01 1.08 1.16 1.26 1.36 1.42 1.34 1.33 1.55 1.41 1.50 1.79 1.87 1.83 1.42 1.43 1.19 1.30 1.48 1.18 0.96 0.87 0.77

GFSMA_prec_precacc_192.txt.gz
Total_Precipitation_Accumulation
0.73 1.09 0.85 0.83 0.62 1.22 0.79 0.54 0.57 0.53 0.61 0.68 0.60 0.50 0.28 0.37 0.22 0.27 0.37 0.55 0.61 0.72 1.07 1.04 0.99 0.98 0.71 0.48 0.45 0.49 0.57 0.63 0.69 0.77 0.94 0.93 0.66 0.57 0.52 0.57 0.45 0.39 0.43
0.73 1.15 1.02 0.87 0.61 0.87 0.79 0.68 0.45 0.52 0.50 0.70 0.56 0.49 0.36 0.37 0.18 0.18 0.29 0.45 0.52 0.57 0.87 1.26 1.40 1.21 0.70 0.37 0.21 0.24 0.30 0.32 0.47 0.73 0.95 0.97 0.80 0.60 0.53 0.43 0.41 0.39 0.36
0.48 0.74 0.94 0.73 0.64 0.72 0.67 0.83 0.77 0.60 0.59 0.86 0.60 0.51 0.40 0.45 0.25 0.12 0.20 0.29 0.31 0.41 0.57 0.81 1.07 1.08 0.80 0.42 0.22 0.13 0.16 0.13 0.19 0.36 0.49 0.67 0.84 0.78 0.71 0.62 0.58 0.55 0.47
0.38 0.47 0.71 0.92 0.80 0.82 0.59 0.56 0.77 0.61 0.56 0.77 0.78 0.54 0.52 0.45 0.42 0.13 0.13 0.30 0.32 0.32 0.45 0.54 0.75 0.90 0.89 0.63 0.38 0.21 0.15 0.17 0.16 0.23 0.32 0.49 0.74 0.74 0.81 0.77 0.78 0.82 0.82
0.61 0.52 0.53 0.68 1.04 0.77 0.60 0.64 0.65 0.67 0.48 0.61 0.80 0.69 0.60 0.47 0.54 0.46 0.20 0.21 0.35 0.34 0.32 0.39 0.44 0.51 0.62 0.72 0.65 0.46 0.31 0.26 0.22 0.23 0.28 0.30 0.43 0.85 1.07 1.06 0.94 1.03 1.21
0.97 0.93 0.82 0.61 0.70 0.83 0.69 0.83 0.89 0.81 0.67 0.53 0.69 0.78 0.57 0.66 0.59 0.63 0.40 0.26 0.32 0.38 0.35 0.41 0.39 0.39 0.52 0.68 0.75 0.66 0.46 0.36 0.35 0.31 0.32 0.27 0.29 0.43 0.57 0.86 1.19 1.35 1.41
1.19 1.54 1.49 1.32 0.85 0.53 0.65 0.75 1.13 1.16 1.08 0.93 1.25 1.23 0.90 0.62 0.66 0.60 0.52 0.44 0.51 0.44 0.56 0.49 0.59 0.51 0.58 0.64 0.66 0.59 0.49 0.41 0.37 0.41 0.36 0.26 0.29 0.32 0.46 0.69 1.04 1.35 1.70
1.26 1.36 1.48 1.72 1.87 1.23 0.76 0.73 1.08 1.52 1.63 1.55 1.64 1.42 1.09 0.86 0.61 0.66 0.54 0.42 0.38 0.41 0.56 0.73 0.56 0.58 0.70 0.73 0.58 0.58 0.61 0.64 0.51 0.50 0.65 0.57 0.42 0.32 0.32 0.46 0.60 1.02 1.35
0.84 1.22 1.44 1.38 1.39 1.29 1.16 1.12 1.32 1.76 1.65 1.61 1.42 1.73 1.47 1.10 0.81 0.67 0.58 0.44 0.57 0.70 0.66 0.78 0.91 0.71 0.61 0.61 0.59 0.55 0.50 0.60 0.83 0.86 0.91 0.76 0.63 0.47 0.48 0.52 0.56 0.67 0.90
0.58 0.88 1.20 1.09 1.33 1.57 1.09 0.90 0.69 1.09 1.60 1.75 2.01 1.57 0.94 0.81 0.77 0.77 0.66 0.57 0.50 0.65 0.97 1.53 1.73 1.93 1.92 1.87 1.70 1.44 1.36 1.34 1.33 1.58 1.75 1.66 1.47 1.50 1.60 1.49 1.07 0.74 0.71
0.62 0.69 0.94 1.07 1.11 1.11 1.13 1.00 0.66 0.58 0.86 1.12 1.14 1.33 1.63 1.35 0.99 0.71 0.62 0.50 0.42 0.33 0.43 0.49 0.90 1.34 1.38 1.25 1.27 1.33 1.23 1.50 1.46 1.47 1.58 1.49 1.34 1.34 1.48 1.94 1.99 1.52 1.14
0.84 0.88 0.94 1.05 1.57 1.77 1.56 1.34 1.55 1.33 1.02 1.07 1.28 1.27 0.98 0.91 0.99 1.10 0.90 0.62 0.58 0.42 0.42 0.48 0.54 0.65 0.75 0.71 0.80 0.96 0.78 0.67 0.85 0.90 0.87 0.88 0.78 0.76 0.82 0.84 1.11 1.36 1.21
1.95 2.04 2.01 1.72 1.62 1.87 2.55 2.03 1.97 1.99 2.05 1.67 1.51 1.31 1.27 1.03 0.86 0.89 0.95 0.92 0.96 0.80 0.78 0.68 0.59 0.55 0.66 0.96 0.93 0.89 0.85 0.87 0.77 0.81 0.72 0.61 0.55 0.52 0.50 0.60 0.63 0.68 0.65
2.66 3.02 3.48 3.70 2.99 2.39 2.63 2.75 2.31 2.25 2.72 2.73 2.27 1.86 1.49 1.51 1.55 1.45 1.37 1.63 1.45 1.08 0.91 0.71 0.58 0.65 0.74 0.84 0.98 1.29 1.18 1.09 1.05 0.96 0.85 0.75 0.73 0.69 0.65 0.63 0.67 0.73 0.74
1.65 2.10 2.32 2.52 3.15 3.23 2.80 2.76 2.59 2.18 2.25 2.56 2.56 2.59 2.49 1.78 1.54 1.61 1.72 1.82 2.07 1.50 0.76 0.53 0.83 0.86 0.94 0.95 1.05 1.01 0.95 1.07 1.14 1.12 1.01 0.86 0.77 0.83 0.95 0.94 0.88 0.86 0.84
2.05 1.60 1.76 1.83 1.66 1.61 1.77 2.16 2.37 2.19 2.15 2.17 2.19 2.29 2.47 2.55 2.25 2.09 2.08 2.03 2.02 1.70 1.36 0.88 0.95 0.78 0.90 0.81 1.01 0.97 0.81 0.88 1.04 1.22 1.24 1.34 1.35 1.14 0.99 1.13 1.30 1.18 0.98
2.02 1.90 1.60 1.60 1.61 1.42 1.49 1.59 1.58 1.68 1.95 2.08 1.95 2.08 2.39 2.79 2.69 2.67 2.58 2.40 2.09 2.12 2.57 1.98 1.32 1.20 1.07 0.87 0.82 0.80 0.77 0.64 0.58 0.78 1.03 1.24 1.50 2.01 1.85 1.49 1.45 1.71 1.62
1.67 1.32 1.18 1.12 1.19 1.31 1.46 1.47 1.46 1.52 1.41 1.41 1.60 1.57 1.68 1.86 2.06 2.21 2.44 2.73 2.75 2.73 2.81 2.71 2.64 2.39 1.97 1.55 1.30 1.06 0.77 0.68 0.57 0.69 0.75 0.84 1.01 1.30 1.71 1.90 1.70 1.67 1.83
1.44 1.41 1.16 1.07 1.06 1.19 1.31 1.64 1.52 1.34 1.44 1.70 1.75 1.79 1.75 1.70 1.73 1.86 1.95 1.93 1.83 1.92 2.32 2.62 2.64 2.50 2.26 1.86 1.55 1.30 1.22 1.00 0.71 0.71 0.68 0.79 0.88 0.88 1.04 1.38 1.77 1.82 1.73
1.45 1.78 1.89 1.94 1.72 1.39 1.40 1.36 1.31 1.33 1.23 1.56 1.68 1.41 1.61 1.69 1.51 1.41 1.58 1.69 1.63 1.79 2.00 2.30 2.47 2.33 2.18 2.08 2.09 1.95 1.73 1.43 1.43 1.21 1.03 0.85 0.84 0.93 0.96 1.00 1.07 1.31 1.62
0.77 1.33 1.40 1.56 1.43 1.17 1.16 0.84 0.64 1.01 1.13 1.05 1.32 1.14 1.01 1.12 1.18 0.88 0.82 1.00 1.30 1.60 1.87 2.02 2.26 2.27 2.12 2.03 2.17 2.18 2.15 2.03 2.08 1.67 1.43 1.36 1.29 1.16 1.16 1.21 1.23 1.25 1.27
0.41 0.61 0.73 0.86 1.01 0.80 0.87 0.52 0.45 0.55 0.62 0.56 0.58 0.55 0.60 0.76 0.63 0.77 0.83 0.81 0.79 0.93 1.13 1.34 1.48 1.59 1.54 1.61 1.77 2.02 2.09 2.39 2.33 1.62 1.84 1.86 1.63 1.67 1.73 1.76 2.05 1.72 1.39
0.70 0.60 0.61 0.64 0.83 0.97 1.09 0.95 0.79 0.59 0.63 0.73 0.75 0.71 0.60 0.59 0.66 0.41 0.61 0.75 0.85 1.03 1.07 1.03 1.17 1.18 1.19 1.16 1.33 1.57 1.69 1.78 1.76 1.48 1.79 2.03 1.82 1.85 1.81 1.96 2.41 2.14 2.02
0.88 0.82 0.79 0.67 0.49 0.53 0.69 0.71 0.92 0.95 1.07 0.99 0.95 0.88 0.94 0.95 0.99 0.92 0.74 0.78 0.80 0.90 1.04 1.14 1.29 1.30 1.26 1.19 1.27 1.37 1.50 1.72 1.70 1.41 1.39 1.69 1.37 1.58 1.62 1.56 1.97 1.44 1.29
0.98 1.00 1.00 1.02 0.84 0.68 0.85 0.65 0.62 0.45 0.57 0.64 0.61 0.66 0.73 0.67 1.20 1.18 0.92 0.96 1.16 1.46 1.85 1.91 2.02 2.07 1.92 1.61 1.39 1.45 1.74 2.09 2.14 1.81 1.59 1.52 1.33 1.29 1.27 1.16 1.18 1.36 0.96
1.36 1.30 1.27 1.19 1.32 0.97 1.35 1.18 1.08 0.91 0.96 0.91 0.77 0.75 1.24 0.94 1.27 0.98 0.85 0.80 1.01 1.08 1.16 1.26 1.36 1.42 1.34 1.33 1.55 1.41 1.50 1.79 1.87 1.83 1.42 1.43 1.19 1.30 1.48 1.18 0.96 0.87 0.77

GFSMA_prec_precacc_198.txt.gz
Total_Precipitation_Accumulation
0.84 1.24 0.95 0.89 0.64 1.23 0.79 0.54 0.57 0.53 0.61 0.68 0.60 0.50 0.28 0.37 0.22 0.27 0.37 0.55 0.61 0.72 1.07 1.05 1.00 0.99 0.72 0.49 0.46 0.49 0.58 0.64 0.70 0.78 0.95 0.94 0.66 0.58 0.52 0.57 0.45 0.40 0.43
0.78 1.23 1.09 0.93 0.64 0.88 0.79 0.68 0.45 0.52 0.50 0.70 0.56 0.49 0.36 0.37 0.18 0.18 0.29 0.46 0.52 0.58 0.88 1.27 1.41 1.23 0.71 0.38 0.22 0.25 0.31 0.33 0.48 0.74 0.96 0.98 0.81 0.60 0.53 0.43 0.41 0.39 0.36
0.48 0.74 0.94 0.73 0.65 0.72 0.67 0.83 0.77 0.60 0.59 0.86 0.60 0.51 0.40 0.45 0.25 0.12 0.20 0.29 0.31 0.42 0.59 0.83 1.08 1.10 0.82 0.44 0.25 0.15 0.18 0.15 0.21 0.37 0.50 0.68 0.84 0.78 0.72 0.63 0.58 0.55 0.48
0.38 0.47 0.71 0.92 0.80 0.82 0.59 0.56 0.77 0.61 0.56 0.77 0.78 0.54 0.52 0.45 0.42 0.13 0.13 0.30 0.32 0.32 0.46 0.55 0.77 0.91 0.90 0.65 0.41 0.25 0.18 0.21 0.18 0.26 0.33 0.49 0.75 0.75 0.82 0.78 0.78 0.82 0.82
0.62 0.52 0.53 0.68 1.04 0.77 0.60 0.64 0.65 0.67 0.48 0.61 0.80 0.69 0.60 0.47 0.54 0.46 0.20 0.21 0.35 0.34 0.32 0.39 0.45 0.52 0.64 0.74 0.68 0.50 0.35 0.30 0.25 0.26 0.30 0.32 0.45 0.86 1.08 1.07 0.95 1.04 1.22
0.97 0.93 0.82 0.61 0.70 0.83 0.69 0.83 0.89 0.81 0.67 0.53 0.69 0.78 0.57 0.66 0.59 0.63 0.40 0.26 0.32 0.38 0.35 0.41 0.39 0.39 0.53 0.70 0.78 0.69 0.49 0.39 0.38 0.33 0.35 0.29 0.31 0.45 0.59 0.88 1.21 1.36 1.42
1.19 1.54 1.49 1.32 0.85 0.53 0.65 0.75 1.13 1.16 1.08 0.93 1.25 1.23 0.90 0.62 0.66 0.60 0.52 0.44 0.51 0.44 0.56 0.49 0.59 0.51 0.59 0.64 0.68 0.61 0.52 0.44 0.41 0.44 0.39 0.29 0.31 0.35 0.48 0.72 1.07 1.37 1.72
1.26 1.36 1.48 1.72 1.87 1.23 0.76 0.73 1.08 1.52 1.63 1.55 1.64 1.42 1.09 0.86 0.61 0.66 0.54 0.42 0.38 0.41 0.56 0.73 0.56 0.58 0.70 0.73 0.59 0.59 0.62 0.65 0.54 0.52 0.68 0.60 0.45 0.35 0.35 0.49 0.63 1.05 1.38
0.84 1.22 1.44 1.38 1.39 1.29 1.16 1.12 1.32 1.76 1.65 1.61 1.42 1.73 1.47 1.10 0.81 0.67 0.58 0.44 0.57 0.70 0.66 0.78 0.91 0.71 0.61 0.61 0.59 0.55 0.50 0.61 0.84 0.87 0.92 0.78 0.65 0.50 0.51 0.55 0.59 0.70 0.93
0.58 0.88 1.20 1.09 1.33 1.57 1.09 0.90 0.69 1.09 1.60 1.75 2.01 1.57 0.94 0.81 0.77 0.77 0.66 0.57 0.50 0.65 0.97 1.53 1.73 1.93 1.92 1.88 1.70 1.44 1.36 1.34 1.33 1.58 1.75 1.67 1.48 1.52 1.62 1.52 1.10 0.77 0.74
0.62 0.69 0.94 1.07 1.11 1.11 1.13 1.00 0.66 0.58 0.86 1.12 1.14 1.33 1.63 1.35 0.99 0.71 0.62 0.51 0.42 0.33 0.43 0.49 0.90 1.34 1.38 1.25 1.27 1.33 1.23 1.50 1.46 1.47 1.58 1.49 1.34 1.34 1.49 1.96 2.02 1.55 1.17
0.84 0.88 0.94 1.05 1.57 1.77 1.56 1.34 1.55 1.33 1.02 1.07 1.28 1.27 0.98 0.91 0.99 1.10 0.90 0.62 0.58 0.42 0.42 0.48 0.54 0.65 0.75 0.71 0.81 0.96 0.78 0.67 0.85 0.90 0.87 0.88 0.78 0.76 0.82 0.85 1.12 1.39 1.24
1.95 2.04 2.01 1.72 1.62 1.87 2.55 2.03 1.97 1.99 2.05 1.67 1.51 1.31 1.27 1.03 0.86 0.89 0.95 0.92 0.96 0.80 0.78 0.68 0.59 0.55 0.66 0.96 0.93 0.89 0.85 0.87 0.77 0.81 0.72 0.61 0.55 0.52 0.50 0.60 0.64 0.69 0.68
2.66 3.02 3.48 3.70 2.99 2.39 2.63 2.75 2.31 2.25 2.72 2.73 2.27 1.86 1.49 1.51 1.55 1.45 1.37 1.63 1.45 1.08 0.91 0.71 0.58 0.65 0.74 0.84 0.98 1.29 1.18 1.09 1.05 0.96 0.85 0.75 0.73 0.69 0.65 0.63 0.67 0.73 0.76
1.65 2.10 2.32 2.52 3.15 3.23 2.80 2.76 2.59 2.18 2.25 2.56 2.56 2.59 2.49 1.78 1.54 1.61 1.72 1.82 2.07 1.50 0.76 0.53 0.83 0.86 0.94 0.95 1.05 1.01 0.95 1.07 1.14 1.12 1.01 0.86 0.77 0.83 0.95 0.94 0.88 0.86 0.85
2.05 1.60 1.76 1.83 1.66 1.61 1.77 2.16 2.37 2.19 2.15 2.17 2.19 2.29 2.47 2.55 2.25 2.09 2.08 2.03 2.02 1.70 1.36 0.88 0.95 0.78 0.90 0.81 1.01 0.97 0.81 0.88 1.04 1.22 1.24 1.34 1.35 1.14 0.99 1.13 1.30 1.18 0.99
2.02 1.90 1.60 1.60 1.61 1.42 1.49 1.59 1.58 1.68 1.95 2.08 1.95 2.08 2.39 2.79 2.69 2.67 2.58 2.40 2.09 2.12 2.57 1.98 1.32 1.20 1.07 0.87 0.82 0.80 0.77 0.64 0.58 0.78 1.03 1.24 1.50 2.01 1.85 1.49 1.45 1.71 1.63
1.67 1.32 1.18 1.12 1.19 1.31 1.46 1.47 1.46 1.52 1.41 1.41 1.60 1.57 1.68 1.86 2.06 2.21 2.44 2.73 2.75 2.73 2.81 2.71 2.64 2.39 1.97 1.55 1.30 1.06 0.77 0.68 0.57 0.69 0.75 0.84 1.01 1.30 1.71 1.90 1.70 1.67 1.83
1.45 1.41 1.16 1.07 1.06 1.19 1.31 1.64 1.52 1.34 1.44 1.70 1.75 1.79 1.75 1.70 1.73 1.86 1.95 1.93 1.83 1.92 2.32 2.62 2.64 2.50 2.26 1.86 1.55 1.30 1.22 1.00 0.71 0.71 0.68 0.79 0.89 0.88 1.04 1.38 1.77 1.82 1.73
1.47 1.78 1.90 1.94 1.72 1.39 1.40 1.36 1.31 1.33 1.23 1.56 1.68 1.41 1.61 1.69 1.51 1.41 1.58 1.69 1.63 1.79 2.00 2.30 2.47 2.33 2.18 2.08 2.09 1.95 1.73 1.43 1.43 1.21 1.03 0.85 0.84 0.93 0.96 1.00 1.07 1.31 1.62
0.78 1.33 1.40 1.56 1.43 1.17 1.16 0.84 0.64 1.01 1.13 1.05 1.32 1.14 1.01 1.12 1.18 0.88 0.82 1.00 1.30 1.60 1.87 2.02 2.26 2.27 2.12 2.03 2.17 2.18 2.15 2.03 2.08 1.67 1.43 1.36 1.29 1.16 1.16 1.21 1.23 1.25 1.27
0.41 0.61 0.73 0.86 1.01 0.80 0.87 0.52 0.45 0.55 0.62 0.56 0.58 0.55 0.60 0.76 0.63 0.77 0.83 0.81 0.79 0.93 1.13 1.34 1.48 1.59 1.54 1.61 1.77 2.02 2.09 2.39 2.33 1.62 1.84 1.86 1.63 1.67 1.73 1.76 2.05 1.72 1.39
0.70 0.60 0.62 0.65 0.83 0.98 1.09 0.95 0.79 0.59 0.63 0.73 0.75 0.71 0.60 0.59 0.66 0.41 0.61 0.75 0.85 1.03 1.07 1.03 1.17 1.18 1.19 1.16 1.33 1.57 1.69 1.78 1.76 1.48 1.79 2.03 1.82 1.85 1.82 1.96 2.41 2.14 2.02
0.90 0.85 0.81 0.70 0.53 0.57 0.72 0.73 0.94 0.96 1.07 0.99 0.95 0.88 0.94 0.95 0.99 0.92 0.74 0.78 0.80 0.90 1.04 1.14 1.29 1.30 1.26 1.19 1.27 1.37 1.50 1.72 1.70 1.41 1.39 1.69 1.37 1.58 1.62 1.56 1.97 1.44 1.29
1.00 1.01 1.02 1.06 0.89 0.73 0.89 0.70 0.66 0.47 0.59 0.65 0.62 0.66 0.73 0.67 1.20 1.18 0.92 0.96 1.16 1.46 1.85 1.91 2.02 2.07 1.92 1.61 1.39 1.45 1.74 2.09 2.14 1.81 1.59 1.52 1.33 1.29 1.27 1.17 1.18 1.36 0.96
1.36 1.30 1.27 1.20 1.33 0.99 1.38 1.20 1.09 0.92 0.96 0.91 0.77 0.75 1.24 0.94 1.27 0.98 0.85 0.80 1.01 1.09 1.16 1.26 1.36 1.42 1.34 1.33 1.55 1.41 1.50 1.79 1.87 1.83 1.43 1.43 1.19 1.30 1.48 1.18 0.96 0.87 0.77

GFSMA_prec_precacc_201.txt.gz
Total_Precipitation_Accumulation
0.85 1.26 1.00 0.93 0.67 1.24 0.80 0.54 0.57 0.53 0.61 0.68 0.60 0.50 0.28 0.37 0.22 0.27 0.37 0.55 0.61 0.72 1.07 1.05 1.00 0.99 0.72 0.49 0.46 0.50 0.58 0.64 0.70 0.78 0.95 0.94 0.66 0.58 0.52 0.57 0.45 0.40 0.43
0.78 1.25 1.15 0.98 0.69 0.91 0.80 0.68 0.45 0.52 0.50 0.70 0.56 0.49 0.36 0.37 0.18 0.18 0.29 0.46 0.52 0.58 0.88 1.27 1.42 1.23 0.72 0.39 0.23 0.25 0.31 0.33 0.49 0.74 0.96 0.98 0.81 0.60 0.53 0.44 0.42 0.39 0.37
0.49 0.75 0.95 0.75 0.66 0.74 0.69 0.84 0.77 0.60 0.59 0.86 0.60 0.51 0.40 0.45 0.25 0.12 0.20 0.29 0.31 0.42 0.59 0.83 1.09 1.10 0.84 0.46 0.26 0.16 0.19 0.15 0.21 0.38 0.50 0.68 0.85 0.78 0.72 0.63 0.58 0.55 0.48
0.39 0.48 0.72 0.93 0.80 0.82 0.59 0.56 0.77 0.61 0.56 0.77 0.78 0.54 0.52 0.45 0.42 0.13 0.13 0.30 0.32 0.32 0.46 0.55 0.77 0.92 0.91 0.67 0.43 0.27 0.19 0.21 0.19 0.26 0.34 0.50 0.76 0.75 0.82 0.78 0.79 0.82 0.82
0.62 0.52 0.53 0.68 1.04 0.77 0.60 0.64 0.65 0.67 0.48 0.61 0.80 0.69 0.60 0.47 0.54 0.46 0.20 0.21 0.35 0.34 0.32 0.39 0.45 0.52 0.64 0.74 0.69 0.51 0.36 0.31 0.26 0.27 0.31 0.33 0.46 0.87 1.09 1.08 0.96 1.04 1.22
0.98 0.93 0.82 0.61 0.70 0.83 0.69 0.83 0.89 0.81 0.67 0.53 0.69 0.78 0.57 0.66 0.59 0.63 0.40 0.26 0.32 0.38 0.35 0.41 0.39 0.39 0.53 0.70 0.78 0.71 0.51 0.41 0.39 0.34 0.36 0.30 0.32 0.46 0.60 0.89 1.21 1.37 1.42
1.19 1.54 1.49 1.32 0.85 0.53 0.65 0.75 1.13 1.16 1.08 0.93 1.25 1.23 0.90 0.62 0.66 0.60 0.52 0.44 0.51 0.44 0.56 0.49 0.59 0.51 0.59 0.64 0.68 0.62 0.54 0.46 0.42 0.44 0.40 0.29 0.32 0.35 0.49 0.72 1.08 1.38 1.72
1.26 1.36 1.48 1.72 1.87 1.23 0.76 0.73 1.08 1.52 1.63 1.55 1.64 1.42 1.09 0.86 0.61 0.66 0.54 0.42 0.38 0.41 0.56 0.73 0.56 0.58 0.70 0.73 0.59 0.59 0.62 0.66 0.54 0.53 0.68 0.60 0.46 0.36 0.36 0.50 0.64 1.06 1.40
0.84 1.22 1.44 1.38 1.39 1.29 1.16 1.12 1.32 1.76 1.65 1.61 1.42 1.73 1.47 1.10 0.81 0.67 0.58 0.44 0.57 0.70 0.66 0.78 0.91 0.71 0.61 0.61 0.59 0.55 0.50 0.61 0.84 0.87 0.92 0.78 0.65 0.50 0.52 0.56 0.61 0.71 0.94
0.58 0.88 1.20 1.09 1.33 1.57 1.09 0.90 0.69 1.09 1.60 1.75 2.01 1.57 0.94 0.81 0.77 0.77 0.66 0.57 0.50 0.65 0.97 1.53 1.73 1.93 1.92 1.88 1.70 1.44 1.36 1.34 1.33 1.58 1.75 1.67 1.48 1.52 1.62 1.52 1.11 0.78 0.75
0.62 0.69 0.94 1.07 1.11 1.11 1.13 1.00 0.66 0.58 0.86 1.12 1.14 1.33 1.63 1.35 0.99 0.71 0.62 0.51 0.42 0.33 0.43 0.49 0.90 1.34 1.38 1.25 1.27 1.33 1.23 1.50 1.46 1.47 1.58 1.49 1.34 1.34 1.49 1.96 2.03 1.56 1.18
0.84 0.88 0.94 1.05 1.57 1.77 1.56 1.34 1.55 1.33 1.02 1.07 1.28 1.27 0.98 0.91 0.99 1.10 0.90 0.62 0.58 0.42 0.42 0.48 0.54 0.65 0.75 0.71 0.81 0.96 0.78 0.67 0.85 0.90 0.87 0.88 0.78 0.76 0.82 0.85 1.13 1.39 1.24
1.96 2.04 2.01 1.72 1.62 1.87 2.55 2.03 1.97 1.99 2.05 1.67 1.51 1.31 1.27 1.03 0.86 0.89 0.95 0.92 0.96 0.80 0.78 0.68 0.59 0.55 0.66 0.96 0.93 0.89 0.85 0.87 0.77 0.81 0.72 0.61 0.55 0.52 0.50 0.60 0.64 0.70 0.68
2.67 3.02 3.48 3.70 2.99 2.39 2.63 2.75 2.31 2.25 2.72 2.73 2.27 1.86 1.49 1.51 1.55 1.45 1.37 1.63 1.45 1.08 0.91 0.71 0.58 0.65 0.74 0.84 0.98 1.29 1.18 1.09 1.05 0.96 0.85 0.75 0.73 0.69 0.65 0.63 0.67 0.74 0.76
1.67 2.11 2.32 2.52 3.15 3.23 2.80 2.76 2.59 2.18 2.25 2.56 2.56 2.59 2.49 1.78 1.54 1.61 1.72 1.82 2.07 1.50 0.76 0.53 0.83 0.86 0.94 0.95 1.05 1.01 0.95 1.07 1.14 1.12 1.01 0.86 0.77 0.83 0.95 0.94 0.88 0.86 0.85
2.06 1.60 1.76 1.83 1.66 1.61 1.77 2.16 2.37 2.19 2.15 2.17 2.19 2.29 2.47 2.55 2.25 2.09 2.08 2.03 2.02 1.70 1.36 0.88 0.95 0.78 0.90 0.81 1.01 0.97 0.81 0.88 1.04 1.22 1.24 1.34 1.35 1.14 0.99 1.13 1.30 1.18 0.99
2.04 1.91 1.61 1.61 1.61 1.42 1.49 1.59 1.58 1.68 1.95 2.08 1.95 2.08 2.39 2.79 2.69 2.67 2.58 2.40 2.09 2.12 2.57 1.98 1.32 1.20 1.07 0.87 0.82 0.80 0.77 0.64 0.58 0.78 1.03 1.24 1.50 2.01 1.85 1.49 1.45 1.71 1.63
1.71 1.33 1.18 1.12 1.19 1.31 1.46 1.47 1.46 1.52 1.41 1.41 1.60 1.57 1.68 1.86 2.06 2.21 2.44 2.73 2.75 2.73 2.81 2.71 2.64 2.39 1.97 1.55 1.30 1.06 0.77 0.68 0.57 0.69 0.75 0.84 1.01 1.30 1.71 1.90 1.70 1.67 1.83
1.48 1.42 1.18 1.08 1.07 1.19 1.31 1.64 1.52 1.34 1.44 1.70 1.75 1.79 1.75 1.70 1.73 1.86 1.95 1.93 1.83 1.92 2.32 2.62 2.64 2.50 2.26 1.86 1.55 1.30 1.22 1.00 0.71 0.71 0.68 0.79 0.89 0.88 1.04 1.38 1.77 1.82 1.73
1.53 1.83 1.95 1.98 1.76 1.42 1.43 1.37 1.31 1.33 1.23 1.56 1.68 1.41 1.61 1.69 1.51 1.41 1.58 1.69 1.63 1.79 2.00 2.30 2.47 2.33 2.18 2.08 2.09 1.95 1.73 1.43 1.43 1.21 1.03 0.85 0.84 0.93 0.96 1.00 1.07 1.31 1.62
0.94 1.46 1.50 1.62 1.48 1.21 1.18 0.84 0.64 1.01 1.13 1.05 1.32 1.14 1.01 1.12 1.18 0.88 0.82 1.00 1.30 1.60 1.87 2.02 2.26 2.27 2.12 2.03 2.17 2.18 2.15 2.03 2.08 1.67 1.43 1.36 1.29 1.16 1.16 1.21 1.23 1.25 1.27
0.58 0.75 0.86 0.94 1.05 0.81 0.88 0.52 0.45 0.55 0.62 0.56 0.58 0.55 0.60 0.76 0.63 0.77 0.83 0.81 0.79 0.93 1.13 1.34 1.48 1.59 1.54 1.61 1.77 2.02 2.09 2.39 2.34 1.62 1.84 1.86 1.63 1.68 1.73 1.76 2.05 1.72 1.39
0.78 0.65 0.67 0.68 0.85 0.98 1.09 0.95 0.79 0.59 0.63 0.73 0.75 0.71 0.60 0.59 0.66 0.41 0.61 0.75 0.85 1.03 1.07 1.03 1.17 1.18 1.19 1.16 1.33 1.57 1.69 1.78 1.76 1.48 1.79 2.04 1.82 1.86 1.82 1.96 2.41 2.14 2.02
0.94 0.88 0.83 0.70 0.53 0.57 0.72 0.73 0.94 0.96 1.07 0.99 0.95 0.88 0.94 0.95 0.99 0.92 0.74 0.78 0.80 0.90 1.04 1.14 1.29 1.30 1.26 1.19 1.27 1.37 1.50 1.72 1.70 1.41 1.39 1.69 1.37 1.58 1.62 1.56 1.97 1.44 1.29
1.02 1.03 1.02 1.06 0.89 0.73 0.89 0.70 0.66 0.48 0.59 0.66 0.62 0.66 0.73 0.67 1.20 1.18 0.92 0.96 1.16 1.46 1.85 1.91 2.02 2.07 1.92 1.61 1.39 1.45 1.74 2.09 2.14 1.81 1.59 1.52 1.33 1.30 1.28 1.17 1.18 1.36 0.96
1.37 1.30 1.27 1.20 1.33 0.99 1.38 1.20 1.09 0.92 0.96 0.91 0.77 0.75 1.24 0.95 1.28 0.99 0.85 0.80 1.01 1.09 1.16 1.26 1.36 1.42 1.34 1.33 1.55 1.41 1.50 1.79 1.87 1.84 1.43 1.43 1.19 1.30 1.49 1.18 0.96 0.87 0.77